SHIELDS 1

Satellite information

Favourite Embed

Satellite Type and Status

PAYLOADIN ORBIT

Key statistics

Satellite SHIELDS 1 at a glance.

Uptime

2562

Days in orbit

Revolutions

≈ 15.9

Per day

Orbit

LEO

Low Earth Orbit

Inclination

85.0

Latest

Satellite identification and parameters

Extended collection of information and parameters for SHIELDS 1.

Object identification

Identified? True

Debris? False

Object name: SHIELDS 1

International designator: 2018-104B

Object number (NORAD): 43850

Object ID (CCSDS): 43850

Country: UNITED STATES OF AMERICA (US)

Current information (Y/N): Y

RCS size: SMALL

Orbital parameters

Period: 90.725 minutes

Inclination: 85.006 deg

SMA: 6688.226 km

Apoapsis: 315.563 km

Periapsis: 304.619 km

RAAN: 257.8583 deg

Eccentricy: 0.00081812

Argument of periapsis: 90.3681 deg

Mean anomaly: 269.8533 deg

Mean motion: 15.87217104 rev/day

Mean motion (dot): 0.00107424 rev/day2

B* drag term: 0.00040892725 1/REarth

Two-line elements (TLE)

Creation date: Dec. 21, 2025, 3:42 a.m.

Reference frame: TEME

Reference center: EARTH

Epoch: Dec. 20, 2025, 6:06 p.m. UTC

TLE line 0: 0 SHIELDS 1

TLE line 1: 1 43850U 18104B 25354.75471668 .00107424 00000-0 40893-3 0 9992

TLE line 2: 2 43850 85.0060 257.8583 0008181 90.3681 269.8533 15.87217104391920

Live tracking on map

Real-time ground track for satellite SHIELDS 1.

In-orbit conjunctions

There are no conjunctions computed for SHIELDS 1, at the moment. Check back to stay up to date, as we update our databases every day.

Go to all conjunctions

Associated space launch

NASA's signed a Venture Class Launch Services contract with Rocket Lab to launch 10 cubesats as a part of CubeSat Launch Initiative Educational Launch of Nanosatellites (ELaNa) program. Cubesats are: ALBus / CeREs / CHOMPTT / Da Vinci / ISX / NMTSat / RSat-P / Shields 1 / STF 1 / CubeSail A / CubeSail B /TOMSat EagleScout / TOMSat R3 / SHFT 1

SHIELDS 1 was lifted into orbit during the mission ‘Electron | This One's For Pickering (VCLS ELaNa XIX)’, on board a Electron space rocket.

The launch took place on Dec. 16, 2018, 6:33 a.m. from Rocket Lab Launch Complex 1A.

For more information about the launch, click the button.

Launch to space Electron | This One's For Pickering (VCLS ELaNa XIX)
Electron | This One's For Pickering (VCLS ELaNa XIX)

Agency: N/A

Status: Launch Successful

Launch date: Dec. 16, 2018, 6:33 a.m. UTC

Rocket: Electron

Launch pad: Rocket Lab Launch Complex 1A

Location: Rocket Lab Launch Complex 1, Mahia Peninsula, New Zealand

...

Latest news about this satellite

There are no fresh news available about this satellite. Check back as we update our databases every day.


Newsletter sign-up

Weekly statistics, charts and insights to help you stay on top of the space industry.